Weather in Zherdevka

Russia / Belgorod Oblast     50°03′47″N   38°01′18″E
temp.,
°C
wind,
m/s
gust,
m/s
humid.,
%
clouds,
%
prec.,
mm/h
press.,
hPa
HPBL,
m
11 may, tue
tue1100:00+9n101892100 0.0 1012712
03:00+9nne71594100 0.3 1012603
06:00+11nne91791100 0.7 1011963
09:00+8ene6119297 1.1 1015778
12:00+10ene8116699 0.1 10171503
15:00+10ene9147297 0.3 10171388
18:00+10ene10157691 0.4 10171434
21:00+7e91489100 0.7 10171214
12 may, wed
wed1200:00+7e81588100 0.3 10191339
03:00+8e61391100 1.3 10191227
06:00+8e81686100 0.3 1019997
09:00+10e81386100 1.2 10191220
12:00+9ese51189100 2.2 10181134
15:00+13se7107331 3.0 10161288
18:00+13sse6107299 0.6 10161166
21:00+10s51091100 1.4 1016410
13 may, thu
thu1300:00+9ese389468 0.3 1016221
03:00+9ese2292100 0.3 101636
06:00+10ese249380 0.3 1016131
09:00+15sse367455 0.6 1015617
12:00+19s576139 0.3 10151604
15:00+20ssw466096 0.7 10141212
18:00+19ne116899 0.0 101430
21:00+16ene3375100 0.0 101547
14 may, fri
fri1400:00+14ese3482100 0.0 101461
03:00+13ese358811 0.0 101468
06:00+14ese4119091 0.0 1014228
09:00+21se7117054 0.0 1013633
12:00+24se7957100 0.0 10121094
15:00+26se6955100 0.0 10111381
18:00+23s2670100 0.1 1011199
21:00+19se412855 0.1 1010214
15 may, sat
sat1500:00+17sse4109191 0.0 1010188
03:00+16s3493100 0.0 101074
06:00+16sw2391100 0.1 101189
09:00+21sw33680 0.2 1011436
12:00+24sw565585 0.0 10121554
15:00+24sw565096 0.0 10121999
18:00+22wsw46614 0.0 1012397
21:00+17wnw117043 0.1 101311